Theta_e
337 334 337 337 336 336 335 336 340 340 340 341 340 339 339 335 335 336 336 334 337 331
342 341 339 338 339 339 342 339 340 337 338 339 339 339 339 335 336 338 336 336 337 336
343 343 343 342 338 340 341 341 340 339 339 339 338 339 340 336 337 337 336 337 336 335
344 343 344 343 338 339 342 342 342 340 340 339 339 339 339 339 336 333 335 335 333 331
342 341 342 343 338 339 342 343 342 341 339 338 337 337 337 334 334 331 331 328 327 323
339 341 343 342 340 342 340 342 342 340 338 336 336 335 336 336 332 331 327 323 321 319
340 340 341 342 341 342 342 339 339 340 337 335 332 333 332 330 330 326 322 323 320 318
337 338 341 340 340 341 337 334 333 332 332 331 331 329 330 329 326 324 325 324 321 321
334 336 338 340 340 340 335 330 333 333 331 333 331 314 311 315 326 326 325 323 323 323
331 331 331 332 335 336 337 338 336 331 331 333 334 307 305 307 317 323 325 325 325 323
328 326 324 328 329 331 332 333 333 331 330 330 328 308 304 304 318 322 324 325 325 325
325 325 324 323 326 328 328 328 328 328 328 328 328 311 304 309 324 324 324 325 326 326
325 325 324 325 327 329 328 326 325 326 328 322 328 314 306 310 323 322 322 326 326 313
326 326 324 327 328 328 327 326 326 325 327 328 326 327 307 304 323 321 320 320 320 323
Wind_Speed
9 8 7 9 7 7 6 6 5 8 10 11 12 11 10 8 9 9 8 11 10 10
7 10 8 9 8 8 7 6 8 8 10 10 11 11 10 9 10 9 9 11 11 9
6 8 9 8 7 10 7 7 8 11 11 10 10 10 10 10 11 9 11 8 10 10
7 8 8 8 8 8 8 10 11 11 11 11 11 10 9 11 13 13 11 10 8 9
6 8 7 8 5 6 7 8 10 9 9 10 10 10 11 13 11 10 10 7 8 9
5 6 7 7 6 7 5 8 7 7 10 10 10 11 10 9 8 8 7 7 8 9
6 6 7 6 6 6 7 4 5 5 6 7 7 8 7 9 8 8 8 7 8 10
6 5 6 6 5 5 4 3 3 3 2 3 4 6 7 9 8 8 8 9 10 11
7 7 8 7 4 3 4 3 5 3 5 8 5 2 4 7 8 10 10 10 10 11
6 7 7 7 7 5 3 3 3 4 6 7 5 10 8 9 10 10 11 12 11 12
6 6 7 6 7 6 5 5 4 4 5 6 6 8 9 9 10 11 14 14 15 15
6 6 6 7 6 5 5 5 5 5 7 8 8 8 11 9 10 12 14 14 16 16
5 6 7 7 6 5 5 6 5 7 8 8 9 10 10 10 10 12 12 13 15 16
5 7 5 6 5 5 6 8 8 9 9 10 10 12 9 6 10 11 12 12 12 10
Wind_Direction
226 234 230 223 248 227 230 219 216 213 226 231 235 223 223 228 233 239 241 254 252 264
223 241 232 229 225 232 232 238 230 227 232 232 230 227 227 238 244 244 246 253 260 263
240 233 233 234 233 244 232 229 234 234 238 233 229 228 229 241 241 243 256 266 264 265
267 260 244 224 221 237 228 235 238 238 241 236 233 236 242 252 259 265 270 263 265 277
284 264 255 235 197 249 238 235 242 240 236 246 250 242 242 252 260 267 250 254 258 271
289 265 267 255 203 235 236 248 246 240 242 247 255 261 261 272 266 253 256 271 274 275
339 309 288 282 227 236 232 237 230 240 264 261 268 272 275 248 245 242 242 256 260 261
17 351 315 296 267 280 255 237 193 205 12 313 264 247 239 248 245 249 262 262 256 251
11 15 13 12 359 136 187 197 241 216 254 262 283 37 242 277 255 252 260 271 271 268
23 42 32 32 30 11 321 313 287 274 275 279 270 161 201 219 251 267 270 270 270 270
34 35 25 27 25 24 17 358 346 320 296 287 281 172 206 216 249 258 262 265 268 265
12 359 3 8 7 357 341 330 313 304 297 290 287 205 212 213 256 257 259 262 267 269
7 349 343 345 333 328 319 291 301 296 289 288 282 263 223 209 260 269 273 272 262 238
347 336 337 329 313 302 298 308 296 296 297 292 286 289 265 221 278 285 288 289 296 319